Location: Newark
(42.9277°N, 71.8621°W)
Time: 19:06:22
(UTC+00:00)

Transit 4A - Pass Details

Date: 14 May 2021
Orbit: 872 x 973 km, 66.8° (Epoch: 15 June)

Event Time Altitude Azimuth Distance (km) Brightness Sun altitude
Rises 00:56:37 0° 267° (W) 3,581 11.8 -9.3°
Reaches altitude 10° 01:00:19 10° 289° (WNW) 2,618 11.6 -9.9°
Maximum altitude 01:03:51 16° 325° (NW) 2,216 11.1 -10.4°
Drops below altitude 10° 01:07:22 10° 1° (N) 2,583 10.8 -10.9°
Sets 01:11:00 0° 24° (NNE) 3,507 11.1 -11.4°
